Temperature
8 8 7 7 7 6 6 6 5 5 5 5 5 5 5 4 4 3 3 2 2 1 1 0 -0 -1 -1 -1 -2 -2 -2 -2 -2 -2 -2 -2 -2 -2 -2 -2 -2 -2 -2
8 7 7 6 6 6 6 5 5 5 5 5 4 4 4 3 3 2 2 1 1 0 -0 -1 -1 -2 -2 -3 -3 -3 -3 -3 -3 -3 -3 -3 -3 -3 -3 -3 -3 -3 -3
7 7 6 6 6 5 5 5 5 5 4 4 4 3 3 2 2 1 1 0 -1 -1 -2 -2 -3 -3 -4 -4 -4 -4 -4 -4 -4 -4 -4 -4 -4 -4 -3 -3 -3 -3 -3
7 6 6 6 5 5 5 5 4 4 4 3 3 2 2 1 1 0 -0 -1 -2 -2 -3 -3 -4 -4 -5 -5 -5 -5 -5 -4 -4 -4 -4 -4 -4 -4 -4 -4 -4 -4 -3
6 6 5 5 5 5 4 4 4 3 3 2 2 1 1 0 -0 -1 -2 -2 -3 -3 -3 -4 -4 -5 -5 -5 -5 -4 -4 -4 -4 -4 -4 -4 -4 -4 -4 -4 -4 -4 -4
5 5 5 5 4 4 4 3 3 3 2 1 1 0 -0 -0 -1 -2 -2 -3 -3 -4 -4 -4 -5 -5 -5 -5 -5 -4 -4 -4 -4 -4 -4 -4 -4 -4 -4 -4 -4 -4 -4
5 5 5 4 4 3 3 3 2 2 1 0 -0 -0 -1 -1 -2 -2 -3 -3 -4 -4 -5 -5 -5 -5 -5 -5 -5 -5 -5 -5 -4 -4 -4 -4 -4 -4 -4 -4 -4 -4 -4
5 4 4 3 3 3 2 2 1 1 0 -0 -1 -1 -1 -2 -2 -3 -4 -4 -4 -5 -5 -5 -5 -5 -5 -5 -5 -5 -4 -4 -4 -4 -4 -4 -4 -4 -4 -4 -4 -4 -5
4 4 3 3 2 2 2 1 0 -0 -1 -1 -1 -2 -2 -3 -3 -4 -4 -4 -5 -5 -5 -5 -5 -5 -5 -5 -5 -5 -4 -4 -4 -4 -4 -4 -4 -4 -4 -4 -4 -4 -4
3 3 3 2 2 1 1 0 -0 -1 -1 -2 -2 -2 -3 -3 -4 -4 -5 -5 -5 -5 -5 -5 -6 -6 -5 -5 -5 -5 -5 -4 -4 -4 -4 -4 -4 -4 -4 -4 -4 -4 -4
3 2 2 2 1 1 0 -0 -1 -1 -2 -2 -2 -3 -3 -4 -5 -5 -5 -6 -6 -6 -6 -6 -6 -6 -6 -5 -5 -5 -4 -4 -4 -4 -4 -4 -4 -4 -4 -4 -4 -5 -5
2 2 2 1 0 -0 -1 -1 -1 -2 -2 -3 -3 -4 -4 -5 -5 -6 -6 -6 -6 -6 -6 -6 -6 -6 -6 -5 -5 -5 -5 -5 -5 -5 -5 -5 -5 -5 -5 -5 -5 -5 -5
2 1 1 0 -0 -1 -1 -2 -2 -3 -3 -3 -4 -4 -5 -5 -6 -6 -6 -7 -7 -6 -6 -6 -6 -6 -6 -6 -6 -6 -5 -5 -5 -5 -5 -5 -5 -5 -5 -5 -5 -5 -6
1 0 -0 -1 -1 -2 -2 -3 -3 -3 -4 -4 -5 -5 -5 -6 -6 -6 -6 -6 -7 -7 -6 -6 -6 -6 -6 -6 -6 -6 -6 -6 -6 -6 -6 -6 -6 -6 -6 -6 -6 -6 -6
-0 -0 -1 -1 -2 -2 -3 -3 -4 -4 -5 -5 -5 -6 -6 -6 -6 -6 -6 -6 -6 -7 -6 -6 -6 -7 -7 -6 -6 -6 -6 -6 -6 -6 -6 -6 -6 -6 -6 -6 -6 -6 -7
-1 -1 -2 -2 -3 -3 -4 -4 -4 -5 -5 -6 -6 -6 -6 -6 -7 -7 -7 -7 -7 -7 -7 -7 -7 -7 -7 -7 -7 -7 -6 -6 -7 -7 -6 -6 -6 -6 -6 -6 -7 -7 -7
-2 -2 -2 -3 -3 -4 -5 -5 -5 -5 -5 -6 -6 -7 -7 -7 -7 -7 -7 -7 -7 -7 -7 -7 -7 -7 -7 -7 -7 -7 -7 -7 -7 -7 -7 -7 -7 -7 -7 -7 -7 -7 -7
-2 -3 -3 -4 -4 -5 -5 -6 -6 -6 -6 -6 -6 -7 -7 -7 -8 -8 -8 -8 -8 -8 -8 -8 -8 -8 -8 -8 -8 -8 -8 -8 -8 -8 -7 -7 -7 -7 -7 -7 -7 -7 -7
-3 -3 -4 -4 -5 -5 -6 -6 -6 -7 -7 -7 -7 -7 -8 -8 -8 -8 -8 -9 -9 -8 -8 -8 -8 -8 -8 -8 -8 -8 -8 -8 -8 -8 -8 -8 -7 -7 -7 -7 -7 -7 -7
-3 -4 -5 -5 -6 -6 -6 -7 -7 -7 -7 -8 -8 -8 -8 -9 -9 -9 -9 -9 -9 -9 -9 -8 -8 -8 -8 -8 -8 -8 -8 -8 -8 -8 -8 -8 -8 -8 -8 -8 -8 -8 -8
-4 -5 -6 -6 -6 -7 -7 -7 -7 -7 -8 -8 -8 -8 -9 -9 -9 -9 -9 -9 -9 -9 -9 -9 -9 -9 -9 -9 -9 -9 -9 -8 -8 -8 -8 -8 -8 -8 -8 -8 -8 -8 -8
-5 -6 -6 -7 -7 -7 -7 -7 -7 -8 -8 -8 -9 -9 -9 -9 -10 -10 -10 -9 -9 -9 -9 -9 -9 -9 -9 -9 -9 -9 -9 -8 -8 -9 -8 -8 -8 -8 -8 -8 -9 -9 -9
-6 -7 -7 -7 -7 -7 -7 -7 -8 -8 -8 -9 -9 -10 -10 -10 -10 -10 -10 -10 -9 -9 -9 -9 -9 -9 -9 -9 -9 -9 -9 -9 -9 -9 -9 -9 -9 -9 -9 -9 -9 -9 -9
-7 -7 -7 -8 -8 -8 -8 -8 -8 -9 -9 -9 -10 -10 -10 -10 -10 -10 -10 -10 -10 -10 -9 -9 -9 -9 -9 -9 -9 -8 -8 -9 -9 -9 -9 -9 -9 -9 -9 -9 -9 -9 -9
-7 -8 -8 -8 -8 -8 -8 -9 -9 -9 -10 -10 -10 -10 -10 -10 -10 -10 -10 -10 -10 -10 -10 -9 -9 -9 -9 -9 -9 -8 -8 -9 -9 -9 -9 -9 -9 -9 -9 -9 -9 -9 -9
-8 -8 -9 -9 -9 -9 -9 -10 -10 -10 -10 -11 -11 -11 -11 -11 -11 -11 -11 -10 -10 -10 -10 -10 -9 -9 -9 -9 -9 -9 -9 -9 -9 -9 -9 -9 -9 -9 -9 -9 -9 -10 -10
Wind_Speed
2 2 1 2 2 3 4 5 5 5 6 7 8 8 9 9 9 9 9 9 10 10 10 10 11 10 9 8 8 9 9 10 19 19 9 7 9 10 11 13 16 15 18
2 1 2 2 3 4 5 6 6 7 7 7 8 9 9 10 9 9 10 10 10 11 11 10 11 11 12 10 10 11 10 10 14 21 15 8 10 10 11 11 12 15 12
2 1 3 4 4 5 6 6 7 7 8 8 9 9 10 10 10 10 10 11 11 11 11 11 12 13 15 13 13 13 12 14 12 16 18 11 9 10 11 12 14 12 15
1 2 3 4 5 6 6 7 8 8 9 9 10 10 10 10 10 11 11 11 12 12 12 12 14 14 16 16 16 15 14 15 14 15 17 14 11 10 10 11 12 10 12
2 3 5 5 5 6 7 8 8 9 10 10 11 11 10 10 10 11 10 11 12 12 12 12 14 19 24 21 18 14 13 14 14 15 15 15 13 10 10 10 13 11 10
3 4 5 6 6 7 8 8 9 9 10 10 11 11 11 10 20 25 20 12 10 11 12 11 13 18 22 27 29 28 23 17 14 14 15 15 15 13 11 11 12 13 12
4 5 6 7 7 8 8 9 9 10 10 11 11 11 11 13 23 27 27 17 12 11 12 12 14 16 22 14 21 27 25 29 27 19 17 17 16 14 13 15 14 14 14
5 6 7 7 8 8 8 9 10 10 10 10 10 11 11 14 26 28 28 17 11 11 12 13 15 14 16 18 15 14 15 17 20 16 14 16 17 15 14 15 16 15 14
6 7 7 7 8 8 9 10 10 10 10 10 10 11 12 15 24 27 27 12 11 12 12 13 16 15 24 29 20 16 17 15 20 26 26 25 27 28 22 12 11 11 12
7 7 7 7 8 10 11 11 9 9 10 10 11 10 12 12 21 26 26 10 11 12 11 12 21 23 27 29 18 15 18 16 14 16 18 20 18 19 24 14 10 11 10
7 7 8 8 9 10 10 9 10 10 10 10 11 10 10 13 20 24 25 13 11 13 12 11 12 25 29 30 27 17 20 20 14 13 12 11 10 9 10 9 9 10 11
7 8 9 9 9 9 10 10 9 9 10 10 11 12 9 10 16 21 26 25 24 16 13 12 14 28 30 31 24 23 28 24 10 9 10 10 9 8 7 8 9 9 9
8 9 9 9 9 9 9 10 9 9 9 9 10 11 11 8 11 24 27 28 29 19 15 24 28 31 29 21 23 27 22 11 9 10 10 9 7 7 6 6 6 7 7
9 9 9 9 9 9 8 8 8 8 9 9 10 12 12 10 9 9 10 14 20 18 16 20 27 26 21 20 19 15 9 8 10 10 9 8 7 6 6 6 5 5 5
9 9 9 8 9 9 9 8 10 9 11 13 11 11 13 14 15 25 22 14 13 16 18 14 11 10 9 8 9 8 7 7 8 8 8 8 7 6 6 5 4 4 5
8 8 7 7 8 8 10 11 14 16 23 25 24 23 18 23 30 31 30 30 30 29 21 12 11 10 10 10 10 9 7 7 7 8 7 7 7 6 5 4 5 5 5
9 9 8 8 9 9 9 11 13 15 20 22 24 26 26 28 30 30 29 29 28 26 14 10 10 10 10 9 9 9 8 8 7 7 8 7 6 6 5 5 5 5 5
9 10 10 8 9 9 10 10 12 14 15 12 15 23 26 27 28 28 28 24 15 13 9 10 10 10 9 9 9 9 8 8 7 7 7 7 6 6 6 5 5 5 5
9 8 8 9 9 10 10 11 11 13 14 14 12 13 21 23 25 25 23 11 12 12 10 10 10 9 9 9 9 8 8 8 8 7 7 7 6 6 6 5 5 8 6
8 15 15 11 10 10 11 11 12 12 13 13 13 12 11 14 12 12 10 10 11 11 10 11 10 9 9 9 9 8 8 8 8 7 7 6 6 5 6 6 5 5 5
8 11 18 14 10 11 12 12 12 12 13 13 12 15 22 14 12 12 12 11 11 11 11 11 10 9 8 8 8 8 9 8 7 7 6 6 5 5 5 5 5 5 5
8 9 9 10 11 11 13 12 11 12 13 14 13 14 23 14 11 12 11 11 11 10 10 10 10 8 8 8 8 8 8 8 7 6 5 5 5 5 5 5 5 5 5
9 10 11 11 12 16 16 11 11 11 12 12 13 13 12 11 11 12 12 12 11 10 9 9 10 9 8 7 7 7 8 8 7 6 6 6 6 6 6 6 7 7 7
9 11 12 13 12 12 12 11 10 11 12 12 12 12 12 11 12 13 12 12 11 11 9 9 9 11 12 10 7 7 7 8 7 6 8 7 7 7 7 7 7 8 8
10 11 12 12 12 12 11 11 11 11 12 13 13 13 12 12 12 13 12 11 12 11 11 10 9 9 11 11 10 9 13 16 14 9 7 7 8 8 8 8 8 8 9
11 12 12 11 11 11 11 11 12 12 12 13 13 12 12 12 12 12 12 11 11 11 10 9 10 11 11 10 11 14 17 16 15 15 9 7 8 8 8 8 10 10 10
Wind_Direction
94 65 15 351 339 315 299 293 295 294 294 292 290 290 289 286 284 283 281 284 285 285 285 285 283 284 283 278 273 269 266 265 277 284 276 268 264 269 276 276 279 278 277
112 43 327 314 302 296 294 298 302 300 296 292 290 288 286 286 285 285 286 288 286 288 289 290 291 294 290 287 283 278 275 270 274 283 285 278 270 269 272 272 277 277 271
130 299 301 302 304 302 301 303 303 298 293 289 288 286 286 285 285 282 281 280 279 279 281 283 285 287 286 284 282 280 278 277 273 277 283 282 275 272 274 273 271 270 271
167 260 284 289 293 294 296 295 292 289 288 287 284 281 280 279 279 279 278 276 275 273 272 272 277 278 279 280 280 276 274 273 271 271 276 279 277 268 266 272 274 264 265
217 261 269 275 282 286 286 286 285 285 284 281 281 279 277 279 278 277 274 270 270 272 271 270 273 281 283 284 282 276 271 272 274 274 276 278 278 275 271 270 274 273 264
241 263 271 278 280 280 280 282 283 283 282 281 280 280 280 284 293 298 299 289 277 276 280 279 281 285 287 288 288 288 285 281 279 277 280 280 281 277 274 272 275 278 277
259 268 272 273 275 276 279 284 283 283 283 283 282 281 282 287 298 302 303 301 290 285 286 288 292 292 293 285 285 286 285 284 283 280 278 278 279 276 274 275 271 272 273
265 271 273 274 276 280 282 282 282 281 282 284 286 287 288 293 302 304 305 302 289 285 285 286 286 285 284 286 279 274 270 272 273 274 267 267 268 268 262 264 268 270 268
274 277 278 280 284 286 284 282 282 284 286 287 287 288 289 295 302 305 304 295 291 287 285 285 288 286 287 292 291 284 282 278 279 276 273 272 270 272 270 267 261 264 270
278 279 283 285 285 284 281 282 283 285 285 286 286 285 288 292 302 307 307 298 295 293 289 284 289 291 292 294 292 286 286 285 281 279 277 276 275 274 275 268 263 268 271
281 286 286 283 281 281 282 282 284 285 285 287 289 289 289 294 303 305 305 305 297 296 297 295 290 295 296 296 296 291 288 290 284 280 282 278 269 260 256 249 242 250 260
287 287 285 283 284 288 286 286 285 288 291 291 293 293 287 290 296 301 303 305 304 301 299 296 293 297 298 298 299 295 296 299 292 287 285 281 277 271 262 250 241 236 241
288 286 286 288 287 286 287 290 292 289 287 289 290 293 294 286 290 299 302 303 303 301 294 296 299 301 303 301 297 297 299 296 290 289 286 282 274 269 268 265 251 238 242
289 290 291 293 292 289 287 286 288 287 287 289 291 294 296 293 288 288 287 295 298 298 295 295 298 299 297 294 296 297 289 281 285 283 283 280 277 273 271 265 259 243 243
290 289 291 290 291 293 288 283 287 277 283 293 292 291 296 299 297 304 307 304 302 297 303 298 296 294 290 289 290 287 285 286 291 284 282 283 281 276 270 257 248 236 226
292 290 289 289 290 290 292 293 285 286 295 296 296 296 297 298 304 307 308 309 309 309 308 301 299 297 296 297 297 296 293 291 290 288 285 281 279 275 269 254 243 239 234
288 289 289 288 290 290 291 295 299 300 296 296 297 299 300 303 306 309 310 311 311 312 306 298 295 295 296 297 296 295 295 292 291 290 288 284 280 274 265 259 246 235 232
289 291 292 287 286 289 291 292 295 299 302 298 297 299 303 306 308 311 312 314 310 306 292 293 294 294 295 295 294 294 296 295 291 286 284 280 275 271 266 260 250 234 231
289 287 286 284 285 287 289 291 291 292 295 298 299 300 304 308 309 307 310 304 301 299 295 294 291 291 293 293 292 291 290 291 288 285 284 279 272 269 266 259 253 253 243
284 289 295 293 290 291 290 290 291 292 294 296 299 302 306 305 303 305 303 297 296 295 294 295 292 289 291 291 290 289 288 286 286 283 281 277 271 265 263 259 252 250 244
283 289 294 294 290 290 290 290 290 291 294 296 297 300 305 307 306 304 302 298 295 294 295 295 293 291 289 288 287 287 286 285 283 281 279 276 271 267 261 256 256 253 251
282 284 286 287 288 289 289 288 289 291 294 296 298 301 306 304 299 297 297 296 294 291 291 293 293 289 286 287 288 289 288 286 283 280 280 280 275 268 264 259 256 253 249
281 285 288 288 288 290 293 289 289 292 294 297 300 302 302 299 298 298 298 298 296 294 292 290 290 289 285 283 281 281 284 284 280 277 278 277 273 269 263 260 257 255 251
283 286 288 291 291 290 291 292 293 295 296 298 299 299 299 298 299 299 299 299 297 296 293 291 289 287 287 289 286 280 275 276 274 267 265 265 267 266 262 259 256 254 253
289 289 290 291 292 293 293 295 296 297 298 300 300 300 300 300 300 300 300 299 298 297 295 294 292 291 289 287 287 283 285 287 286 278 262 261 263 261 262 261 261 262 259
291 291 292 292 292 293 294 296 297 298 299 299 299 298 299 300 300 300 300 299 300 299 298 297 292 290 289 291 288 290 293 292 289 285 276 264 261 262 261 263 262 262 262
Height
1524 1523 1522 1521 1520 1519 1517 1516 1514 1511 1509 1506 1503 1500 1496 1493 1489 1485 1481 1477 1473 1469 1465 1461 1457 1454 1449 1446 1443 1439 1436 1432 1422 1410 1410 1411 1410 1409 1408 1406 1404 1402 1399
1520 1520 1519 1518 1517 1515 1514 1512 1509 1507 1504 1501 1497 1493 1489 1485 1481 1477 1472 1468 1464 1459 1455 1451 1447 1443 1439 1435 1431 1428 1424 1422 1417 1406 1399 1400 1400 1399 1397 1395 1393 1391 1389
1517 1517 1516 1515 1513 1511 1509 1507 1504 1501 1498 1494 1490 1486 1482 1478 1473 1469 1464 1459 1455 1450 1446 1442 1437 1433 1428 1424 1421 1417 1414 1411 1408 1401 1392 1391 1390 1389 1387 1384 1382 1380 1378
1514 1513 1512 1511 1509 1507 1504 1502 1499 1495 1491 1487 1483 1479 1474 1470 1465 1460 1455 1450 1445 1441 1437 1432 1428 1424 1419 1414 1410 1407 1404 1400 1397 1393 1386 1382 1380 1379 1377 1374 1371 1369 1367
1510 1509 1508 1506 1504 1502 1499 1496 1492 1488 1484 1480 1475 1471 1467 1462 1458 1452 1447 1442 1436 1431 1427 1423 1419 1415 1411 1407 1403 1399 1396 1392 1388 1384 1379 1375 1372 1370 1368 1366 1362 1359 1357
1506 1505 1503 1501 1499 1496 1493 1489 1485 1481 1477 1472 1468 1463 1459 1455 1451 1446 1441 1435 1429 1423 1418 1413 1410 1405 1401 1398 1395 1392 1389 1384 1380 1376 1372 1368 1365 1363 1361 1358 1355 1352 1348
1502 1500 1499 1496 1493 1490 1487 1482 1478 1474 1469 1465 1461 1456 1451 1447 1443 1438 1433 1427 1421 1415 1410 1405 1400 1397 1393 1389 1385 1381 1379 1376 1373 1369 1364 1360 1357 1355 1353 1350 1347 1344 1341
1497 1496 1494 1491 1488 1484 1480 1476 1472 1467 1462 1458 1453 1449 1443 1439 1435 1429 1424 1418 1412 1407 1402 1398 1392 1387 1384 1380 1375 1371 1368 1365 1363 1359 1355 1351 1348 1346 1344 1341 1338 1335 1332
1493 1491 1489 1486 1482 1478 1474 1469 1465 1460 1455 1450 1446 1440 1435 1430 1426 1421 1416 1409 1403 1398 1394 1390 1385 1380 1376 1373 1368 1362 1358 1355 1352 1349 1346 1342 1339 1337 1335 1332 1329 1327 1323
1488 1486 1483 1480 1476 1471 1467 1462 1458 1453 1448 1442 1437 1433 1428 1422 1418 1413 1409 1402 1395 1389 1384 1380 1377 1373 1368 1364 1360 1354 1349 1345 1342 1338 1335 1332 1329 1327 1326 1324 1321 1319 1317
1483 1480 1477 1474 1470 1465 1460 1456 1451 1446 1440 1435 1429 1424 1420 1415 1409 1405 1401 1396 1389 1382 1376 1371 1367 1364 1359 1355 1352 1346 1341 1337 1333 1329 1325 1322 1319 1317 1315 1314 1313 1311 1310
1477 1474 1471 1467 1463 1458 1453 1448 1444 1439 1433 1427 1421 1414 1410 1406 1402 1397 1393 1389 1383 1376 1369 1364 1359 1355 1351 1347 1342 1337 1333 1329 1325 1321 1317 1314 1311 1309 1307 1306 1304 1303 1302
1471 1467 1464 1459 1455 1451 1446 1441 1436 1431 1425 1419 1413 1406 1400 1396 1393 1389 1385 1380 1374 1369 1362 1357 1352 1347 1342 1337 1332 1329 1325 1321 1317 1314 1310 1307 1305 1303 1300 1298 1297 1296 1296
1464 1460 1456 1452 1447 1443 1439 1434 1429 1424 1418 1412 1406 1400 1393 1387 1383 1379 1374 1369 1364 1359 1353 1347 1342 1338 1333 1329 1325 1321 1318 1314 1311 1307 1304 1301 1298 1296 1294 1293 1291 1291 1290
1457 1453 1449 1444 1440 1435 1430 1426 1421 1417 1413 1407 1400 1394 1388 1380 1376 1373 1369 1362 1357 1351 1345 1339 1334 1329 1325 1321 1317 1314 1311 1308 1305 1301 1298 1295 1293 1291 1289 1288 1287 1286 1286
1450 1446 1441 1437 1432 1427 1421 1416 1412 1409 1404 1400 1394 1389 1382 1377 1370 1365 1360 1355 1349 1344 1338 1332 1328 1323 1319 1315 1312 1308 1305 1302 1299 1296 1293 1291 1289 1287 1285 1284 1283 1282 1282
1443 1438 1434 1429 1424 1419 1414 1408 1402 1397 1394 1390 1386 1381 1375 1369 1364 1358 1352 1346 1341 1337 1331 1326 1322 1318 1314 1310 1307 1303 1300 1297 1294 1291 1288 1286 1284 1282 1281 1280 1279 1278 1278
1436 1431 1426 1421 1417 1412 1407 1402 1396 1390 1383 1378 1375 1372 1367 1361 1356 1350 1345 1339 1333 1329 1325 1320 1316 1312 1309 1305 1301 1298 1295 1291 1289 1286 1283 1281 1279 1278 1276 1275 1274 1274 1274
1428 1423 1418 1413 1409 1404 1399 1394 1389 1384 1378 1371 1365 1361 1358 1353 1347 1342 1338 1333 1327 1322 1319 1314 1310 1307 1303 1299 1296 1292 1289 1286 1283 1281 1279 1277 1275 1273 1272 1271 1270 1270 1269
1420 1415 1411 1406 1401 1397 1392 1387 1382 1376 1371 1365 1359 1354 1349 1344 1338 1334 1330 1326 1321 1317 1313 1308 1304 1301 1297 1293 1290 1287 1284 1281 1278 1276 1274 1272 1270 1269 1267 1266 1266 1265 1264
1411 1407 1403 1398 1394 1389 1384 1380 1375 1370 1364 1358 1353 1348 1344 1339 1333 1327 1323 1319 1315 1311 1306 1302 1298 1295 1291 1288 1284 1281 1278 1276 1273 1271 1269 1267 1265 1264 1262 1261 1260 1260 1259
1403 1399 1394 1390 1386 1381 1377 1372 1367 1362 1357 1351 1345 1340 1336 1332 1326 1321 1316 1312 1308 1304 1300 1296 1292 1288 1285 1282 1279 1276 1273 1270 1268 1266 1264 1262 1260 1259 1257 1256 1255 1254 1253
1396 1391 1387 1382 1378 1373 1369 1364 1360 1355 1349 1344 1339 1333 1328 1324 1319 1315 1310 1306 1301 1297 1294 1290 1286 1282 1279 1276 1273 1270 1268 1265 1263 1261 1259 1257 1255 1253 1252 1250 1249 1248 1247
1388 1383 1379 1374 1370 1365 1361 1356 1352 1347 1342 1337 1332 1327 1322 1317 1313 1308 1303 1299 1295 1291 1287 1284 1280 1276 1273 1270 1267 1264 1262 1260 1257 1255 1253 1251 1249 1248 1246 1244 1243 1241 1240
1380 1375 1371 1366 1362 1357 1353 1348 1344 1339 1334 1330 1325 1320 1315 1311 1306 1301 1297 1293 1288 1284 1281 1277 1274 1270 1267 1264 1261 1259 1256 1254 1252 1250 1248 1246 1243 1241 1240 1238 1236 1234 1233
1371 1367 1363 1358 1354 1350 1345 1340 1336 1332 1327 1322 1318 1313 1309 1304 1299 1295 1290 1286 1282 1278 1275 1271 1267 1264 1261 1258 1255 1253 1250 1248 1246 1244 1242 1240 1237 1235 1233 1231 1229 1227 1225